When you browse on this site, cookies collect data to enhance your experience and personalize the content and advertising you see.
Visit our Privacy Policy to learn more. By continuing to use the site, you agree to this use of cookies and data.
  • Em Portugal
  • Lista de países
  • Para 7 dias
  • Temperatura da água
  • Mapas de satélite
  • Mapa do tempo
  • Widgets de tempo
  • user-avatar
    Iniciar Sessão

    Previsão horária em Petrovo

    Hoje, 20 Junho, Quinta-feira

    Tempo Temperatura Precipitação Vento Pressão Humidade
    00:00 +18°C° 0.3 mm 2 m/s 746 mmHg 86%
    01:00 +18°C° 0.3 mm 2 m/s 746 mmHg 89%
    02:00 +17°C° 0.3 mm 3 m/s 746 mmHg 92%
    03:00 +17°C° 0.5 mm 3 m/s 745 mmHg 93%
    04:00 +17°C° 0.5 mm 3 m/s 745 mmHg 94%
    05:00 +17°C° 0.5 mm 2 m/s 745 mmHg 94%
    06:00 +19°C° 0.1 mm 3 m/s 745 mmHg 93%
    07:00 +20°C° 0.1 mm 3 m/s 745 mmHg 91%
    08:00 +21°C° 0.1 mm 3 m/s 745 mmHg 90%
    09:00 +22°C° 0.6 mm 4 m/s 745 mmHg 84%
    10:00 +25°C° 0.6 mm 4 m/s 745 mmHg 77%
    11:00 +27°C° 0.6 mm 5 m/s 744 mmHg 71%
    12:00 +26°C° 0.6 mm 5 m/s 744 mmHg 73%
    13:00 +26°C° 0.6 mm 5 m/s 744 mmHg 74%
    14:00 +26°C° 0.6 mm 4 m/s 744 mmHg 76%
    15:00 +26°C° 0.8 mm 4 m/s 744 mmHg 79%
    16:00 +25°C° 0.8 mm 3 m/s 743 mmHg 82%
    17:00 +24°C° 0.8 mm 3 m/s 743 mmHg 85%
    18:00 +24°C° 0.2 mm 3 m/s 743 mmHg 86%
    19:00 +22°C° 0.2 mm 3 m/s 743 mmHg 87%
    20:00 +22°C° 0.2 mm 3 m/s 743 mmHg 88%
    21:00 +21°C° 0 mm 3 m/s 743 mmHg 90%
    22:00 +21°C° 0 mm 2 m/s 743 mmHg 92%
    23:00 +20°C° 0 mm 2 m/s 743 mmHg 94%

    Amanhã, 21 Junho, Sexta-feira

    Tempo Temperatura Precipitação Vento Pressão Humidade
    00:00 +20°C° 0 mm 2 m/s 743 mmHg 94%
    01:00 +20°C° 0 mm 2 m/s 743 mmHg 94%
    02:00 +19°C° 0 mm 2 m/s 743 mmHg 95%
    03:00 +19°C° 0 mm 2 m/s 744 mmHg 95%
    04:00 +19°C° 0 mm 2 m/s 744 mmHg 96%
    05:00 +19°C° 0 mm 2 m/s 744 mmHg 96%
    06:00 +21°C° 0 mm 2 m/s 744 mmHg 92%
    07:00 +23°C° 0 mm 2 m/s 744 mmHg 89%
    08:00 +24°C° 0 mm 2 m/s 744 mmHg 85%
    09:00 +26°C° 0.5 mm 2 m/s 744 mmHg 79%
    10:00 +27°C° 0.5 mm 2 m/s 744 mmHg 74%
    11:00 +28°C° 0.5 mm 2 m/s 744 mmHg 68%
    12:00 +29°C° 0.4 mm 3 m/s 744 mmHg 67%
    13:00 +29°C° 0.4 mm 3 m/s 744 mmHg 65%
    14:00 +29°C° 0.4 mm 3 m/s 744 mmHg 64%
    15:00 +29°C° 0.7 mm 3 m/s 744 mmHg 67%
    16:00 +28°C° 0.7 mm 3 m/s 743 mmHg 71%
    17:00 +28°C° 0.7 mm 2 m/s 743 mmHg 74%
    18:00 +26°C° 0.2 mm 2 m/s 743 mmHg 78%
    19:00 +25°C° 0.2 mm 1 m/s 743 mmHg 82%
    20:00 +24°C° 0.2 mm 1 m/s 743 mmHg 85%
    21:00 +23°C° 0 mm 1 m/s 744 mmHg 87%
    22:00 +22°C° 0 mm 1 m/s 744 mmHg 89%
    23:00 +21°C° 0 mm 1 m/s 744 mmHg 90%

    Depois de amanhã, 22 Junho, Sábado

    Tempo Temperatura Precipitação Vento Pressão Humidade
    00:00 +21°C° 0.1 mm 1 m/s 744 mmHg 91%
    01:00 +21°C° 0.1 mm 1 m/s 745 mmHg 91%
    02:00 +20°C° 0.1 mm 1 m/s 745 mmHg 91%
    03:00 +20°C° 0.7 mm 1 m/s 745 mmHg 93%
    04:00 +20°C° 0.7 mm 1 m/s 745 mmHg 94%
    05:00 +19°C° 0.7 mm 2 m/s 745 mmHg 96%
    06:00 +20°C° 0.2 mm 2 m/s 746 mmHg 95%
    07:00 +20°C° 0.2 mm 2 m/s 746 mmHg 94%
    08:00 +20°C° 0.2 mm 2 m/s 746 mmHg 93%
    09:00 +21°C° 0.2 mm 2 m/s 747 mmHg 92%
    10:00 +21°C° 0.2 mm 3 m/s 747 mmHg 91%
    11:00 +21°C° 0.2 mm 3 m/s 747 mmHg 90%
    12:00 +22°C° 0.4 mm 3 m/s 747 mmHg 86%
    13:00 +24°C° 0.4 mm 3 m/s 747 mmHg 82%
    14:00 +25°C° 0.4 mm 3 m/s 747 mmHg 78%
    15:00 +25°C° 0.6 mm 3 m/s 747 mmHg 78%
    16:00 +24°C° 0.6 mm 3 m/s 747 mmHg 78%
    17:00 +24°C° 0.6 mm 3 m/s 747 mmHg 78%
    18:00 +22°C° 0.1 mm 3 m/s 748 mmHg 80%
    19:00 +21°C° 0.1 mm 3 m/s 748 mmHg 81%
    20:00 +20°C° 0.1 mm 3 m/s 748 mmHg 83%
    21:00 +19°C° 0 mm 3 m/s 748 mmHg 81%
    22:00 +18°C° 0 mm 3 m/s 748 mmHg 79%
    23:00 +17°C° 0 mm 4 m/s 749 mmHg 77%

    23 Junho, Domingo

    Tempo Temperatura Precipitação Vento Pressão Humidade
    00:00 +17°C° 0 mm 4 m/s 749 mmHg 76%
    01:00 +15°C° 0 mm 4 m/s 749 mmHg 75%
    02:00 +15°C° 0 mm 4 m/s 749 mmHg 74%
    03:00 +14°C° 0 mm 4 m/s 749 mmHg 71%
    04:00 +14°C° 0 mm 4 m/s 749 mmHg 67%
    05:00 +14°C° 0 mm 4 m/s 749 mmHg 64%
    06:00 +14°C° 0 mm 4 m/s 750 mmHg 65%
    07:00 +15°C° 0 mm 4 m/s 750 mmHg 67%
    08:00 +17°C° 0 mm 4 m/s 750 mmHg 68%
    09:00 +18°C° 0 mm 4 m/s 750 mmHg 68%
    10:00 +19°C° 0 mm 4 m/s 750 mmHg 68%
    11:00 +20°C° 0 mm 4 m/s 751 mmHg 68%
    12:00 +21°C° 0 mm 4 m/s 750 mmHg 66%
    13:00 +22°C° 0 mm 5 m/s 750 mmHg 65%
    14:00 +23°C° 0 mm 5 m/s 750 mmHg 63%
    15:00 +23°C° 0 mm 4 m/s 750 mmHg 65%
    16:00 +23°C° 0 mm 4 m/s 750 mmHg 66%
    17:00 +23°C° 0 mm 4 m/s 750 mmHg 68%
    18:00 +22°C° 0 mm 3 m/s 750 mmHg 73%
    19:00 +21°C° 0 mm 3 m/s 751 mmHg 77%
    20:00 +19°C° 0 mm 3 m/s 751 mmHg 82%
    21:00 +18°C° 0 mm 3 m/s 751 mmHg 83%
    22:00 +17°C° 0 mm 3 m/s 751 mmHg 83%
    23:00 +16°C° 0 mm 3 m/s 751 mmHg 83%

    24 Junho, Segunda-feira

    Tempo Temperatura Precipitação Vento Pressão Humidade
    00:00 +16°C° 0 mm 3 m/s 751 mmHg 79%
    01:00 +16°C° 0 mm 3 m/s 751 mmHg 75%
    02:00 +16°C° 0 mm 3 m/s 752 mmHg 70%
    03:00 +16°C° 0 mm 3 m/s 752 mmHg 71%
    04:00 +14°C° 0 mm 4 m/s 752 mmHg 72%
    05:00 +14°C° 0 mm 4 m/s 752 mmHg 73%
    06:00 +17°C° 0 mm 4 m/s 752 mmHg 73%
    07:00 +18°C° 0 mm 4 m/s 752 mmHg 74%
    08:00 +19°C° 0 mm 4 m/s 752 mmHg 74%
    09:00 +20°C° 0 mm 4 m/s 753 mmHg 72%
    10:00 +21°C° 0 mm 3 m/s 753 mmHg 69%
    11:00 +24°C° 0 mm 3 m/s 753 mmHg 67%
    12:00 +24°C° 0 mm 3 m/s 753 mmHg 65%
    13:00 +25°C° 0 mm 3 m/s 753 mmHg 64%
    14:00 +25°C° 0 mm 3 m/s 753 mmHg 62%
    15:00 +25°C° 0 mm 3 m/s 753 mmHg 63%
    16:00 +25°C° 0 mm 3 m/s 753 mmHg 65%
    17:00 +24°C° 0 mm 3 m/s 753 mmHg 66%
    18:00 +22°C° 0 mm 3 m/s 753 mmHg 70%
    19:00 +21°C° 0 mm 2 m/s 753 mmHg 74%
    20:00 +20°C° 0 mm 2 m/s 753 mmHg 78%
    21:00 +18°C° 0 mm 2 m/s 753 mmHg 79%
    22:00 +17°C° 0 mm 2 m/s 753 mmHg 80%
    23:00 +16°C° 0 mm 2 m/s 754 mmHg 80%

    25 Junho, Terça-feira

    Tempo Temperatura Precipitação Vento Pressão Humidade
    00:00 +16°C° 0 mm 2 m/s 754 mmHg 83%
    01:00 +15°C° 0 mm 2 m/s 754 mmHg 86%
    02:00 +15°C° 0 mm 2 m/s 754 mmHg 89%
    03:00 +14°C° 0 mm 2 m/s 754 mmHg 88%
    04:00 +14°C° 0 mm 2 m/s 754 mmHg 88%
    05:00 +14°C° 0 mm 2 m/s 753 mmHg 87%
    06:00 +16°C° 0 mm 2 m/s 754 mmHg 81%
    07:00 +18°C° 0 mm 2 m/s 754 mmHg 75%
    08:00 +20°C° 0 mm 2 m/s 754 mmHg 69%
    09:00 +23°C° 0 mm 2 m/s 754 mmHg 63%
    10:00 +24°C° 0 mm 2 m/s 754 mmHg 57%
    11:00 +25°C° 0 mm 2 m/s 754 mmHg 51%
    12:00 +26°C° 0 mm 2 m/s 754 mmHg 50%
    13:00 +26°C° 0 mm 1 m/s 753 mmHg 48%
    14:00 +26°C° 0 mm 1 m/s 753 mmHg 46%
    15:00 +26°C° 0 mm 1 m/s 753 mmHg 49%
    16:00 +26°C° 0 mm 2 m/s 753 mmHg 52%
    17:00 +26°C° 0 mm 2 m/s 752 mmHg 55%
    18:00 +24°C° 0 mm 2 m/s 752 mmHg 62%
    19:00 +21°C° 0 mm 2 m/s 752 mmHg 68%
    20:00 +20°C° 0 mm 2 m/s 752 mmHg 75%
    21:00 +19°C° 0 mm 2 m/s 752 mmHg 77%
    22:00 +18°C° 0 mm 2 m/s 752 mmHg 80%
    23:00 +17°C° 0 mm 2 m/s 752 mmHg 83%
    Mostrar mais